Beaumont / Port Arthur, TX

3:16 AM CST on December 07, 2019 (GMT -0600)
Beaumont Municipal

Weather History for KBMT - November, 2019

Change the Weather History Date:

Thursday, November 14, 2019

  Actual Average (WUND) Record (WUND)
Temperature  
Mean Temperature 48 °F -  
Max Temperature 50 °F - - (-1)
Min Temperature 46 °F - - (-1)
Degree Days  
Heating Degree Days 17    
Moisture  
Dew Point 42 °F    
Average Humidity 80    
Maximum Humidity 92    
Minimum Humidity 58    
Precipitation  
Precipitation 0.00 in - - ()
Sea Level Pressure  
Sea Level Pressure 30.26 in    
Wind  
Wind Speed 7 mph ()    
Max Wind Speed 13 mph    
Max Gust Speed 16 mph    
Visibility 10.0 miles    
Events Rain    
Averages and records for this station are not official NWS values.
T = Trace of Precipitation, MM = Missing Value Source: Averaged Metar Reports

Daily Weather History Graph

Daily Weather History Graph

Search for Another Location

Airport or City:

Astronomy

Nov. 14, 2019 Rise Set
Actual Time 6:41 AM CST 5:21 PM CST
Civil Twilight 6:15 AM CST 5:46 PM CST
Nautical Twilight 5:46 AM CST 6:15 PM CST
Astronomical Twilight 5:18 AM CST 6:43 PM CST
Moon 7:13 PM CST (11/14) 8:32 AM CST (11/14)
Length of Visible Light 11h 30m
Length of Day
10h 40m
Waning Gibbous, 95% of the Moon is Illuminated
Nov 14
Waning Gibbous
Nov 19
Last Quarter
Nov 26
New
Dec 4
First Quarter
Dec 11
Full

Hourly Weather History & Observations

Time (CST) Temp. Dew Point Humidity Pressure Visibility Wind Dir Wind Speed Gust Speed Precip Events Conditions
12:15 AM 48.6 °F 38.7 °F 69% 30.20 in 10.0 mi East 5.8 mph - N/A   Overcast
12:35 AM 48.6 °F 34.7 °F 59% 30.20 in 10.0 mi ENE 6.9 mph - N/A   Overcast
12:55 AM 48.4 °F 34.0 °F 58% 30.20 in 10.0 mi NE 4.6 mph - N/A   Overcast
1:15 AM 48.4 °F 34.7 °F 59% 30.20 in 10.0 mi ENE 4.6 mph - N/A   Overcast
1:35 AM 48.4 °F 35.1 °F 60% 30.19 in 10.0 mi ENE 4.6 mph - N/A   Overcast
1:55 AM 48.4 °F 35.6 °F 61% 30.20 in 10.0 mi NE 5.8 mph - N/A   Overcast
2:15 AM 48.4 °F 35.6 °F 61% 30.19 in 10.0 mi East 5.8 mph - N/A   Overcast
2:35 AM 48.6 °F 35.4 °F 60% 30.19 in 10.0 mi NE 5.8 mph - N/A   Overcast
2:55 AM 48.6 °F 35.4 °F 60% 30.18 in 10.0 mi NE 4.6 mph - N/A   Overcast
3:15 AM 48.2 °F 35.8 °F 62% 30.19 in 10.0 mi NE 5.8 mph - N/A   Overcast
3:35 AM 48.2 °F 36.1 °F 63% 30.19 in 10.0 mi NE 6.9 mph - N/A   Overcast
4:15 AM 47.8 °F 37.0 °F 66% 30.19 in 10.0 mi NE 5.8 mph - N/A   Overcast
4:35 AM 47.7 °F 37.4 °F 68% 30.18 in 10.0 mi NE 8.1 mph - N/A   Overcast
4:55 AM 47.8 °F 37.2 °F 67% 30.18 in 10.0 mi NE 6.9 mph - N/A   Overcast
5:15 AM 47.8 °F 37.0 °F 66% 30.19 in 10.0 mi NE 6.9 mph - N/A   Overcast
5:55 AM 48.2 °F 36.1 °F 63% 30.21 in 10.0 mi ENE 8.1 mph - N/A   Overcast
6:15 AM 48.2 °F 36.3 °F 63% 30.22 in 10.0 mi NE 5.8 mph - N/A   Overcast
6:35 AM 47.7 °F 37.8 °F 69% 30.22 in 10.0 mi NE 8.1 mph - N/A   Overcast
6:55 AM 47.8 °F 37.8 °F 68% 30.23 in 10.0 mi NE 5.8 mph - N/A   Light Drizzle
7:15 AM 47.5 °F 38.7 °F 71% 30.23 in 10.0 mi NNE 9.2 mph - N/A   Overcast
7:35 AM 47.5 °F 38.3 °F 70% 30.25 in 10.0 mi NE 5.8 mph - N/A   Overcast
7:55 AM 47.8 °F 37.8 °F 68% 30.25 in 10.0 mi ENE 8.1 mph - N/A   Overcast
8:15 AM 48.2 °F 37.6 °F 67% 30.26 in 10.0 mi ENE 5.8 mph - N/A   Light Drizzle
8:35 AM 48.2 °F 37.8 °F 67% 30.27 in 10.0 mi ENE 6.9 mph - N/A   Overcast
8:55 AM 47.7 °F 39.9 °F 75% 30.27 in 10.0 mi NE 4.6 mph - N/A Rain Light Rain
9:15 AM 46.9 °F 41.5 °F 81% 30.27 in 10.0 mi NE 6.9 mph - N/A Rain Rain
9:35 AM 47.3 °F 42.3 °F 83% 30.26 in 10.0 mi NE 8.1 mph - N/A   Drizzle
9:55 AM 47.5 °F 42.4 °F 83% 30.26 in 10.0 mi NE 8.1 mph - N/A   Drizzle
10:15 AM 47.5 °F 42.3 °F 82% 30.27 in 10.0 mi NE 5.8 mph - N/A Rain Rain
10:35 AM 48.2 °F 43.2 °F 83% 30.27 in 10.0 mi NE 5.8 mph - N/A   Drizzle
10:55 AM 48.7 °F 43.5 °F 82% 30.28 in 10.0 mi NNE 4.6 mph - N/A Rain Rain
11:15 AM 48.6 °F 42.6 °F 80% 30.29 in 10.0 mi NNE 4.6 mph - N/A   Drizzle
11:35 AM 48.7 °F 43.3 °F 82% 30.28 in 10.0 mi NE 5.8 mph - N/A   Light Drizzle
11:55 AM 49.1 °F 43.3 °F 81% 30.26 in 10.0 mi NNE 6.9 mph - N/A   Overcast
12:15 PM 49.3 °F 43.7 °F 81% 30.26 in 10.0 mi NNE 8.1 mph - N/A   Overcast
12:35 PM 49.3 °F 45.1 °F 86% 30.24 in 10.0 mi NNE 8.1 mph - N/A   Overcast
12:55 PM 49.1 °F 45.1 °F 86% 30.24 in 10.0 mi North 9.2 mph - N/A   Overcast
1:15 PM 49.6 °F 45.7 °F 86% 30.23 in 10.0 mi NNE 8.1 mph - N/A   Overcast
1:35 PM 50.0 °F 46.6 °F 88% 30.23 in 10.0 mi NE 8.1 mph - N/A   Overcast
1:55 PM 50.5 °F 46.6 °F 86% 30.24 in 10.0 mi NNE 9.2 mph - N/A Rain Light Rain
2:15 PM 49.6 °F 46.4 °F 89% 30.24 in 10.0 mi NNE 10.4 mph - N/A   Light Drizzle
2:35 PM 49.3 °F 46.0 °F 89% 30.25 in 10.0 mi NNE 10.4 mph - N/A   Overcast
2:55 PM 49.1 °F 46.2 °F 90% 30.25 in 10.0 mi North 9.2 mph - N/A   Light Drizzle
3:15 PM 49.1 °F 46.4 °F 90% 30.25 in 10.0 mi North 8.1 mph - N/A   Drizzle
3:35 PM 48.9 °F 46.4 °F 91% 30.25 in 10.0 mi NNE 10.4 mph - N/A Rain Light Rain
3:55 PM 48.6 °F 46.0 °F 91% 30.25 in 10.0 mi NNE 10.4 mph - N/A   Overcast
4:15 PM 48.6 °F 45.9 °F 90% 30.26 in 10.0 mi NNE 6.9 mph - N/A   Overcast
4:35 PM 48.6 °F 46.0 °F 91% 30.27 in 10.0 mi North 8.1 mph - N/A   Overcast
4:55 PM 48.6 °F 46.4 °F 92% 30.26 in 10.0 mi North 11.5 mph - N/A   Overcast
5:15 PM 48.4 °F 45.9 °F 91% 30.26 in 10.0 mi North 11.5 mph - N/A   Overcast
5:35 PM 48.4 °F 45.7 °F 90% 30.27 in 10.0 mi North 9.2 mph - N/A   Overcast
5:55 PM 48.2 °F 45.7 °F 91% 30.28 in 10.0 mi North 6.9 mph - N/A   Overcast
6:15 PM 48.4 °F 45.7 °F 90% 30.28 in 10.0 mi North 8.1 mph - N/A   Overcast
6:55 PM 48.4 °F 45.7 °F 90% 30.30 in 10.0 mi North 5.8 mph - N/A   Overcast
7:15 PM 48.6 °F 46.0 °F 91% 30.30 in 10.0 mi North 6.9 mph - N/A   Overcast
7:35 PM 48.6 °F 46.2 °F 92% 30.31 in 10.0 mi North 8.1 mph - N/A   Overcast
7:55 PM 48.6 °F 46.4 °F 92% 30.32 in 10.0 mi North 8.1 mph - N/A   Overcast
8:15 PM 48.6 °F 46.2 °F 92% 30.32 in 10.0 mi North 5.8 mph - N/A   Overcast
8:35 PM 48.7 °F 45.7 °F 89% 30.33 in 10.0 mi North 10.4 mph - N/A   Overcast
8:55 PM 48.6 °F 45.5 °F 89% 30.33 in 10.0 mi North 9.2 mph - N/A   Overcast
9:15 PM 48.4 °F 45.5 °F 90% 30.34 in 10.0 mi North 10.4 mph - N/A   Overcast
9:35 PM 48.2 °F 45.1 °F 89% 30.33 in 10.0 mi North 12.7 mph 16.1 mph N/A   Overcast
9:55 PM 48.2 °F 45.1 °F 89% 30.33 in 10.0 mi North 9.2 mph - N/A   Overcast
10:15 PM 48.2 °F 45.0 °F 89% 30.34 in 10.0 mi North 8.1 mph - N/A   Overcast
10:35 PM 47.8 °F 45.0 °F 90% 30.34 in 10.0 mi North 9.2 mph - N/A   Overcast
10:55 PM 47.8 °F 45.0 °F 90% 30.34 in 10.0 mi North 6.9 mph - N/A   Overcast
11:15 PM 47.7 °F 44.6 °F 89% 30.34 in 10.0 mi North 8.1 mph - N/A   Overcast
11:35 PM 47.7 °F 44.8 °F 90% 30.34 in 10.0 mi North 10.4 mph - N/A   Overcast
11:55 PM 47.5 °F 44.6 °F 90% 30.33 in 10.0 mi North 10.4 mph - N/A   Overcast